TimeEST,TemperatureF,Dew PointF,Humidity,Sea Level PressureIn,VisibilityMPH,Wind Direction,Wind SpeedMPH,Gust SpeedMPH,PrecipitationIn,Events,Conditions,WindDirDegrees,DateUTC
12:51 AM,23.0,19.9,88,30.32,8.0,Calm,Calm,-,N/A,,Clear,0,2012-11-20 05:51:00
1:51 AM,23.0,21.0,92,30.32,8.0,Calm,Calm,-,N/A,,Clear,0,2012-11-20 06:51:00
2:51 AM,21.9,21.0,96,30.31,9.0,Calm,Calm,-,N/A,,Clear,0,2012-11-20 07:51:00
3:51 AM,19.9,18.0,92,30.30,7.0,Calm,Calm,-,N/A,,Clear,0,2012-11-20 08:51:00
4:51 AM,19.0,18.0,96,30.31,7.0,Calm,Calm,-,N/A,,Clear,0,2012-11-20 09:51:00
5:51 AM,19.9,19.0,96,30.30,8.0,Calm,Calm,-,N/A,,Clear,0,2012-11-20 10:51:00
6:51 AM,19.9,19.0,96,30.30,7.0,Calm,Calm,-,N/A,,Clear,0,2012-11-20 11:51:00
7:51 AM,23.0,21.9,96,30.31,6.0,Calm,Calm,-,N/A,,Clear,0,2012-11-20 12:51:00
8:51 AM,25.0,24.1,96,30.31,6.0,Calm,Calm,-,N/A,,Clear,0,2012-11-20 13:51:00
9:51 AM,28.0,26.1,92,30.30,6.0,Calm,Calm,-,N/A,,Clear,0,2012-11-20 14:51:00
10:51 AM,32.0,28.9,88,30.28,8.0,Calm,Calm,-,N/A,,Clear,0,2012-11-20 15:51:00
11:51 AM,33.1,26.1,75,30.26,10.0,East,3.5,-,N/A,,Clear,80,2012-11-20 16:51:00
12:51 PM,37.9,27.0,65,30.23,10.0,Calm,Calm,-,N/A,,Scattered Clouds,0,2012-11-20 17:51:00
1:51 PM,39.9,26.1,58,30.21,10.0,Calm,Calm,-,N/A,,Mostly Cloudy,0,2012-11-20 18:51:00
2:51 PM,42.1,26.1,53,30.21,10.0,Calm,Calm,-,N/A,,Overcast,0,2012-11-20 19:51:00
3:51 PM,39.0,27.0,62,30.22,10.0,Calm,Calm,-,N/A,,Mostly Cloudy,0,2012-11-20 20:51:00
4:51 PM,33.1,26.1,75,30.23,10.0,Calm,Calm,-,N/A,,Clear,0,2012-11-20 21:51:00
5:51 PM,30.9,26.1,82,30.24,10.0,Calm,Calm,-,N/A,,Scattered Clouds,0,2012-11-20 22:51:00
6:51 PM,30.9,26.1,82,30.25,10.0,Calm,Calm,-,N/A,,Mostly Cloudy,0,2012-11-20 23:51:00
7:51 PM,30.0,26.1,85,30.25,10.0,Calm,Calm,-,N/A,,Partly Cloudy,0,2012-11-21 00:51:00
8:51 PM,30.9,27.0,85,30.25,10.0,Calm,Calm,-,N/A,,Mostly Cloudy,0,2012-11-21 01:51:00
9:51 PM,30.9,27.0,85,30.25,10.0,Calm,Calm,-,N/A,,Overcast,0,2012-11-21 02:51:00
10:51 PM,30.0,27.0,88,30.25,10.0,Calm,Calm,-,N/A,,Overcast,0,2012-11-21 03:51:00
11:51 PM,28.9,26.1,89,30.25,10.0,Calm,Calm,-,N/A,,Mostly Cloudy,0,2012-11-21 04:51:00